sat.trackr.live / text

‹ back to catalog

STARLINK-1171

NORAD 45062 · 2020-006U

PAYLOAD ACTIVE UNKNOWN

§ Identity

Operator
Country
US
Launch date
2020-01-29
Launch site
AFETR
Launch vehicle
Mass (kg)
RCS (m²)

Purposes: comms

External: N2YO · Heavens-Above · Gunter

§ Orbital elements

Epoch: 2026-09-20T00:00:02.998944Z

Period
89.95 min
Inclination
53.0295°
Eccentricity
0.0002683
Mean motion
16.00836252 rev/d
Perigee alt
270.3 km
Apogee alt
273.9 km
Semi-major
6,650.2 km
B*
1.9359e-3
RAAN
358.4259°
Arg perigee
12.5951°
Mean anomaly
263.4342°
Rev number
605

§ Raw data

STARLINK-11711 45062U 20006U   26263.00003471  .01056900  57248-3  19359-2 0  99982 45062  53.0295 358.4259 0002683  12.5951 263.4342 16.00836252  6059

JSON: /api/v1/satellites/45062 · /tle

For live sub-satellite position, see the globe view (requires WebGL).

§ Visibility from observer

Set your observer location to see the next 7 days of passes ≥ 10°. The values pass through the URL so the page stays shareable.

No JS? Fill the form by hand. The geolocation button needs JavaScript.